• In Romania
  • List of Countries
  • For 7 days
  • Water Temperature
  • Satellite Maps
  • Weather Map
  • Weather Widgets
  • user-avatar
    Login

    Hourly Weather Quito

    Today, 20 August, Sunday

    Time Temperature Precipitation Wind Pressure Humidity
    00:00 +19°C° 0 mm 1 mps 623 mmHg 26%
    01:00 +18°C° 0 mm 1 mps 623 mmHg 27%
    02:00 +16°C° 0 mm 1 mps 623 mmHg 28%
    03:00 +16°C° 0 mm 1 mps 623 mmHg 30%
    04:00 +15°C° 0 mm 1 mps 622 mmHg 31%
    05:00 +15°C° 0 mm 1 mps 623 mmHg 31%
    06:00 +16°C° 0 mm 1 mps 623 mmHg 31%
    07:00 +16°C° 0 mm 1 mps 624 mmHg 31%
    08:00 +20°C° 0 mm 2 mps 625 mmHg 26%
    09:00 +24°C° 0 mm 3 mps 626 mmHg 20%
    10:00 +28°C° 0 mm 4 mps 627 mmHg 15%
    11:00 +29°C° 0 mm 3 mps 627 mmHg 14%
    12:00 +30°C° 0 mm 3 mps 626 mmHg 13%
    13:00 +33°C° 0 mm 3 mps 626 mmHg 12%
    14:00 +33°C° 0 mm 3 mps 625 mmHg 11%
    15:00 +31°C° 0 mm 2 mps 625 mmHg 11%
    16:00 +31°C° 0 mm 2 mps 624 mmHg 11%
    17:00 +29°C° 0 mm 2 mps 624 mmHg 13%
    18:00 +26°C° 0 mm 1 mps 623 mmHg 15%
    19:00 +23°C° 0 mm 1 mps 623 mmHg 17%
    20:00 +22°C° 0 mm 1 mps 623 mmHg 17%
    21:00 +21°C° 0 mm 1 mps 623 mmHg 18%
    22:00 +21°C° 0 mm 1 mps 624 mmHg 18%
    23:00 +20°C° 0 mm 1 mps 623 mmHg 20%

    Tomorrow, 21 August, Monday

    Time Temperature Precipitation Wind Pressure Humidity
    00:00 +19°C° 0 mm 1 mps 623 mmHg 21%
    01:00 +18°C° 0 mm 1 mps 623 mmHg 22%
    02:00 +18°C° 0 mm 1 mps 623 mmHg 25%
    03:00 +18°C° 0 mm 1 mps 622 mmHg 27%
    04:00 +16°C° 0 mm 1 mps 622 mmHg 30%
    05:00 +18°C° 0 mm 1 mps 622 mmHg 31%
    06:00 +17°C° 0 mm 2 mps 623 mmHg 33%
    07:00 +17°C° 0 mm 2 mps 623 mmHg 34%
    08:00 +20°C° 0 mm 3 mps 624 mmHg 30%
    09:00 +24°C° 0 mm 3 mps 625 mmHg 27%
    10:00 +27°C° 0 mm 4 mps 626 mmHg 23%
    11:00 +28°C° 0 mm 4 mps 626 mmHg 21%
    12:00 +30°C° 0 mm 3 mps 626 mmHg 18%
    13:00 +31°C° 0 mm 3 mps 625 mmHg 16%
    14:00 +31°C° 0 mm 3 mps 625 mmHg 16%
    15:00 +31°C° 0 mm 3 mps 624 mmHg 15%
    16:00 +31°C° 0 mm 3 mps 624 mmHg 14%
    17:00 +29°C° 0 mm 2 mps 623 mmHg 17%
    18:00 +26°C° 0 mm 2 mps 623 mmHg 19%
    19:00 +24°C° 0 mm 1 mps 622 mmHg 22%
    20:00 +23°C° 0 mm 1 mps 623 mmHg 23%
    21:00 +21°C° 0 mm 2 mps 623 mmHg 24%
    22:00 +20°C° 0 mm 2 mps 623 mmHg 25%
    23:00 +19°C° 0 mm 2 mps 623 mmHg 26%

    Day after tomorrow, 22 August, Tuesday

    Time Temperature Precipitation Wind Pressure Humidity
    00:00 +18°C° 0 mm 2 mps 622 mmHg 28%
    01:00 +17°C° 0 mm 2 mps 622 mmHg 30%
    02:00 +17°C° 0 mm 2 mps 622 mmHg 31%
    03:00 +16°C° 0 mm 2 mps 621 mmHg 33%
    04:00 +16°C° 0 mm 1 mps 621 mmHg 34%
    05:00 +16°C° 0 mm 2 mps 622 mmHg 34%
    06:00 +16°C° 0 mm 2 mps 622 mmHg 34%
    07:00 +17°C° 0 mm 2 mps 623 mmHg 34%
    08:00 +20°C° 0 mm 3 mps 624 mmHg 29%
    09:00 +23°C° 0 mm 4 mps 625 mmHg 24%
    10:00 +27°C° 0 mm 5 mps 626 mmHg 19%
    11:00 +29°C° 0 mm 4 mps 626 mmHg 17%
    12:00 +30°C° 0 mm 4 mps 625 mmHg 14%
    13:00 +31°C° 0 mm 3 mps 625 mmHg 12%
    14:00 +31°C° 0 mm 3 mps 624 mmHg 12%
    15:00 +31°C° 0 mm 3 mps 624 mmHg 11%
    16:00 +31°C° 0 mm 3 mps 623 mmHg 11%
    17:00 +28°C° 0 mm 2 mps 622 mmHg 13%
    18:00 +26°C° 0 mm 2 mps 622 mmHg 15%
    19:00 +23°C° 0 mm 1 mps 621 mmHg 17%
    20:00 +22°C° 0 mm 1 mps 622 mmHg 18%
    21:00 +21°C° 0 mm 1 mps 622 mmHg 19%
    22:00 +20°C° 0 mm 1 mps 622 mmHg 20%
    23:00 +19°C° 0 mm 1 mps 621 mmHg 21%

    23 August, Wednesday

    Time Temperature Precipitation Wind Pressure Humidity
    00:00 +18°C° 0 mm 1 mps 621 mmHg 22%
    01:00 +18°C° 0 mm 1 mps 621 mmHg 24%
    02:00 +16°C° 0 mm 1 mps 620 mmHg 25%
    03:00 +15°C° 0 mm 1 mps 620 mmHg 26%
    04:00 +15°C° 0 mm 1 mps 620 mmHg 27%
    05:00 +16°C° 0 mm 1 mps 621 mmHg 28%
    06:00 +16°C° 0 mm 1 mps 621 mmHg 28%
    07:00 +18°C° 0 mm 1 mps 622 mmHg 28%
    08:00 +20°C° 0 mm 2 mps 623 mmHg 24%
    09:00 +24°C° 0 mm 3 mps 624 mmHg 20%
    10:00 +28°C° 0 mm 4 mps 625 mmHg 16%
    11:00 +29°C° 0 mm 3 mps 624 mmHg 14%
    12:00 +31°C° 0 mm 3 mps 624 mmHg 12%
    13:00 +32°C° 0 mm 2 mps 624 mmHg 11%
    14:00 +32°C° 0 mm 2 mps 623 mmHg 10%
    15:00 +32°C° 0 mm 2 mps 623 mmHg 10%
    16:00 +32°C° 0 mm 1 mps 622 mmHg 10%
    17:00 +29°C° 0 mm 1 mps 622 mmHg 12%
    18:00 +26°C° 0 mm 1 mps 621 mmHg 14%
    19:00 +23°C° 0 mm 1 mps 621 mmHg 16%
    20:00 +23°C° 0 mm 1 mps 621 mmHg 16%
    21:00 +22°C° 0 mm 1 mps 621 mmHg 17%
    22:00 +21°C° 0 mm 1 mps 621 mmHg 18%
    23:00 +20°C° 0 mm 1 mps 621 mmHg 20%

    24 August, Thursday

    Time Temperature Precipitation Wind Pressure Humidity
    00:00 +19°C° 0 mm 1 mps 620 mmHg 22%
    01:00 +19°C° 0 mm 1 mps 620 mmHg 24%
    02:00 +18°C° 0 mm 1 mps 620 mmHg 29%
    03:00 +16°C° 0 mm 1 mps 620 mmHg 34%
    04:00 +15°C° 0 mm 1 mps 620 mmHg 39%
    05:00 +16°C° 0 mm 1 mps 620 mmHg 40%
    06:00 +16°C° 0 mm 1 mps 621 mmHg 42%
    07:00 +16°C° 0 mm 1 mps 622 mmHg 43%
    08:00 +20°C° 0 mm 2 mps 623 mmHg 37%
    09:00 +24°C° 0 mm 2 mps 624 mmHg 30%
    10:00 +28°C° 0 mm 2 mps 625 mmHg 24%
    11:00 +30°C° 0 mm 2 mps 625 mmHg 21%
    12:00 +32°C° 0 mm 1 mps 624 mmHg 17%
    13:00 +34°C° 0 mm 1 mps 624 mmHg 14%
    14:00 +34°C° 0 mm 1 mps 624 mmHg 14%
    15:00 +33°C° 0 mm 1 mps 623 mmHg 14%
    16:00 +32°C° 0 mm 1 mps 623 mmHg 14%
    17:00 +30°C° 0 mm 1 mps 622 mmHg 16%
    18:00 +27°C° 0 mm 1 mps 622 mmHg 19%
    19:00 +23°C° 0 mm 0 mps 622 mmHg 21%
    20:00 +24°C° 0 mm 1 mps 622 mmHg 22%
    21:00 +24°C° 0 mm 1 mps 622 mmHg 23%
    22:00 +24°C° 0 mm 1 mps 623 mmHg 24%
    23:00 +23°C° 0 mm 2 mps 622 mmHg 30%

    25 August, Friday

    Time Temperature Precipitation Wind Pressure Humidity
    00:00 +20°C° 0 mm 2 mps 622 mmHg 36%
    01:00 +19°C° 0 mm 3 mps 622 mmHg 42%
    02:00 +18°C° 0 mm 3 mps 621 mmHg 48%
    03:00 +17°C° 0 mm 3 mps 621 mmHg 54%
    04:00 +16°C° 0 mm 2 mps 621 mmHg 60%
    05:00 +17°C° 0 mm 2 mps 622 mmHg 60%
    06:00 +17°C° 0 mm 3 mps 622 mmHg 60%
    07:00 +17°C° 0 mm 3 mps 623 mmHg 59%
    08:00 +20°C° 0 mm 3 mps 623 mmHg 47%
    09:00 +25°C° 0 mm 3 mps 624 mmHg 36%
    10:00 +28°C° 0 mm 3 mps 625 mmHg 24%
    11:00 +30°C° 0 mm 3 mps 625 mmHg 20%
    12:00 +32°C° 0 mm 2 mps 625 mmHg 17%
    13:00 +35°C° 0 mm 2 mps 624 mmHg 13%
    14:00 +33°C° 0 mm 1 mps 624 mmHg 13%
    15:00 +33°C° 0 mm 1 mps 623 mmHg 13%
    16:00 +33°C° 0 mm 1 mps 623 mmHg 13%
    17:00 +30°C° 0 mm 1 mps 622 mmHg 15%
    18:00 +27°C° 0 mm 1 mps 622 mmHg 18%
    19:00 +25°C° 0 mm 1 mps 621 mmHg 20%
    20:00 +24°C° 0 mm 1 mps 622 mmHg 21%
    21:00 +23°C° 0 mm 1 mps 622 mmHg 22%
    22:00 +22°C° 0 mm 1 mps 622 mmHg 23%
    23:00 +22°C° 0 mm 1 mps 622 mmHg 24%
    Show more